Waarnemingen

Advertentie
Mijn weer
Dax, Frankrijk (7603): temperatuur & dauwpunt: 15.08.2018 06:00:00 - 21.08.2018 06:00:00 (CEST)Dax, Frankrijk (7603): temperatuur 5cm: 15.08.2018 06:00:00 - 21.08.2018 06:00:00 (CEST)Dax, Frankrijk (7603): temperatuur -20cm & temperatuur -100cm: 15.08.2018 06:00:00 - 21.08.2018 06:00:00 (CEST)Dax, Frankrijk (7603): windsnelheid & windstoten: 15.08.2018 06:00:00 - 21.08.2018 06:00:00 (CEST)Dax, Frankrijk (7603): windrichting: 15.08.2018 06:00:00 - 21.08.2018 06:00:00 (CEST)Dax, Frankrijk (7603): luchtdruk: 15.08.2018 06:00:00 - 21.08.2018 06:00:00 (CEST)Dax, Frankrijk (7603): zicht: 15.08.2018 06:00:00 - 21.08.2018 06:00:00 (CEST)Dax, Frankrijk (7603): Zonneschijnduur: 15.08.2018 06:00:00 - 21.08.2018 06:00:00 (CEST)Dax, Frankrijk (7603): neerslag: 15.08.2018 06:00:00 - 21.08.2018 06:00:00 (CEST)
Datum & Tijd tt [°C] td [°C] tt 5cm [°C] tt -20cm [°C] tt -100cm [°C] ff [km/u] ff [kn] fx [km/u] fx [kn] dd ppp [hPa] vv [km] sd [min] rr [mm]
21.08.2018 06:00:00 17,4 16,6 15,9 - 22,6 4 2 8 4 ZZW 1018,9 11 0 0,0
21.08.2018 05:00:00 17,7 17,1 16,4 - 22,6 2 1 7 4 WZW 1019,2 10 0 0,0
21.08.2018 04:00:00 17,8 17,2 16,9 - 22,6 4 2 8 4 Z 1019,6 9 0 0,0
21.08.2018 03:00:00 18,0 17,2 17,2 - 22,6 4 2 10 5 Z 1019,9 7 0 0,0
21.08.2018 02:00:00 18,5 17,8 17,5 - 22,6 6 3 9 5 Z 1020,4 7 0 0,0
21.08.2018 01:00:00 18,6 17,6 17,7 - 22,6 5 3 8 5 ZZW 1020,6 8 0 0,0
21.08.2018 00:00:00 19,1 17,9 18,6 - 22,6 5 3 12 6 W 1020,5 9 0 0,0
20.08.2018 23:00:00 19,9 18,0 19,3 - 22,6 6 3 10 5 W 1020,9 11 0 0,0
20.08.2018 22:00:00 20,5 17,3 19,8 - 22,6 5 3 13 7 WZW 1020,8 17 0 0,0
20.08.2018 21:00:00 21,8 16,7 21,2 - 22,6 6 3 17 9 W 1020,3 22 36 0,0
20.08.2018 20:00:00 23,8 16,1 24,3 - 22,6 10 6 22 12 WNW 1019,8 23 60 0,0
20.08.2018 19:00:00 25,2 15,5 27,7 - 22,6 13 7 24 13 W 1019,8 22 60 0,0
20.08.2018 18:00:00 26,5 16,4 29,9 - 22,6 10 6 24 13 WNW 1020,1 23 60 0,0
20.08.2018 17:00:00 26,5 16,4 30,5 - 22,6 15 8 24 13 WNW 1020,5 30 60 0,0
20.08.2018 16:00:00 27,9 17,1 31,9 - 22,6 15 8 22 12 WZW 1020,9 27 60 0,0
20.08.2018 15:00:00 28,2 16,1 32,7 - 22,6 7 4 16 8 W 1021,2 19 60 0,0
20.08.2018 14:00:00 26,9 15,9 31,3 - 22,6 5 3 14 8 WNW 1021,9 28 60 0,0
20.08.2018 13:00:00 25,5 15,8 30,0 - 22,6 8 4 15 8 WZW 1022,4 17 60 0,0
20.08.2018 12:00:00 24,1 15,8 28,4 - 22,6 8 4 15 8 NW 1022,8 24 60 0,0
20.08.2018 11:00:00 22,1 17,5 26,0 - 22,6 4 2 11 6 NNW 1022,8 20 60 0,0
20.08.2018 10:00:00 19,8 15,4 21,0 - 22,6 0 0 7 4 N 1022,9 17 60 0,0
20.08.2018 09:00:00 16,2 14,7 14,8 - 22,6 3 2 6 3 Z 1022,7 21 60 0,0
20.08.2018 08:00:00 14,2 13,7 11,9 - 22,6 2 1 4 2 Z 1022,9 15 24 0,2
20.08.2018 07:00:00 13,9 12,6 12,3 - 22,6 0 0 6 4 N 1022,7 14 0 0,0
20.08.2018 06:00:00 14,3 13,3 12,8 23,6 22,6 2 1 4 2 WNW 1022,6 18 0 0,0
20.08.2018 05:00:00 14,5 13,7 13,2 23,8 22,7 0 0 4 2 N 1022,7 15 0 0,0
20.08.2018 04:00:00 15,9 14,6 14,0 23,9 22,7 4 2 12 6 WNW 1022,9 13 0 0,0
20.08.2018 03:00:00 15,5 14,0 14,1 24,0 22,7 0 0 5 3 N 1023,2 20 0 0,0
20.08.2018 02:00:00 16,3 14,5 15,1 - 22,7 0 0 7 4 N 1023,1 25 0 0,0
20.08.2018 01:00:00 16,6 14,1 15,2 - 22,7 3 2 6 3 Z 1023,3 25 0 0,0
20.08.2018 00:00:00 18,1 14,6 16,1 - 22,7 2 1 5 3 Z 1023,4 24 0 0,0
19.08.2018 23:00:00 20,4 13,1 19,1 - 22,7 3 2 9 5 W 1023,2 34 0 0,0
19.08.2018 22:00:00 21,7 12,8 20,5 - 22,7 5 3 12 7 NNW 1022,9 34 0 0,0
19.08.2018 21:00:00 23,3 13,7 22,3 - 22,7 5 3 24 13 NW 1022,4 34 39 0,0
19.08.2018 20:00:00 25,7 15,4 26,9 - 22,7 10 5 20 11 NW 1022,1 25 60 0,0
19.08.2018 19:00:00 26,9 15,6 29,6 - 22,7 10 5 20 11 WNW 1022,0 23 60 0,0
19.08.2018 18:00:00 27,4 15,7 30,6 - 22,7 13 7 22 12 WNW 1022,1 22 60 0,0
19.08.2018 17:00:00 28,0 16,6 31,3 - 22,7 11 6 22 12 WNW 1022,1 19 58 0,0
19.08.2018 16:00:00 28,6 14,8 32,3 - 22,7 8 4 18 10 ZZW 1022,2 21 60 0,0
19.08.2018 15:00:00 28,0 14,6 32,1 - 22,7 8 5 15 8 ZZW 1022,7 18 60 0,0
19.08.2018 14:00:00 27,1 15,1 31,6 - 22,7 5 3 13 7 OZO 1023,2 22 60 0,0
19.08.2018 13:00:00 25,5 15,5 29,8 - 22,7 3 2 11 6 W 1023,7 15 60 0,0
19.08.2018 12:00:00 23,1 16,2 24,9 - 22,7 4 2 10 6 NW 1024,0 15 56 0,0
19.08.2018 11:00:00 21,1 14,7 24,1 - 22,7 4 2 10 6 ZZW 1024,2 13 48 0,0
19.08.2018 10:00:00 18,7 15,2 21,5 - 22,7 4 2 8 4 WNW 1024,0 14 56 0,0
19.08.2018 09:00:00 16,3 14,8 15,3 - 22,7 3 1 5 3 Z 1023,7 16 60 0,0
19.08.2018 08:00:00 14,0 13,4 12,1 - 22,7 0 0 3 2 N 1023,4 14 25 0,0
19.08.2018 07:00:00 13,7 12,8 12,3 - 22,7 0 0 6 4 N 1023,2 16 0 0,0
19.08.2018 06:00:00 13,9 13,1 12,6 - 22,7 5 3 8 4 Z 1022,9 15 0 0,0
19.08.2018 05:00:00 14,2 13,1 12,9 - 22,8 0 0 4 2 N 1023,1 17 0 0,0
19.08.2018 04:00:00 14,8 13,7 13,5 - 22,7 0 0 3 2 N 1023,3 19 0 0,0
19.08.2018 03:00:00 15,4 13,4 14,2 - 22,7 0 0 5 3 N 1023,3 20 0 0,0
19.08.2018 02:00:00 15,9 14,1 14,8 - 22,7 0 0 5 3 N 1023,4 22 0 0,0
19.08.2018 01:00:00 17,7 13,4 16,2 - 22,7 0 0 6 3 N 1023,4 22 0 0,0
19.08.2018 00:00:00 19,2 13,4 17,8 24,3 22,7 4 2 8 4 NNW 1023,3 23 0 0,0
18.08.2018 23:00:00 20,1 13,3 18,9 - 22,7 4 2 12 6 NW 1023,2 24 0 0,0
18.08.2018 22:00:00 21,4 13,3 20,7 - 22,7 7 4 14 8 NNW 1022,8 28 0 0,0
18.08.2018 21:00:00 23,0 13,7 22,6 - 22,7 9 5 19 11 NNW 1022,2 32 37 0,0
18.08.2018 20:00:00 24,8 14,0 25,8 - 22,8 7 4 16 9 NW 1021,7 28 52 0,0
18.08.2018 19:00:00 25,5 12,7 26,2 - 22,7 5 3 15 8 ZZO 1021,7 32 38 0,0
18.08.2018 18:00:00 25,9 13,4 26,8 - 22,7 10 5 19 11 O 1021,8 29 40 0,0
18.08.2018 17:00:00 25,8 12,6 28,0 - 22,7 8 4 19 11 O 1022,1 23 57 0,0
18.08.2018 16:00:00 25,9 13,4 28,0 - 22,8 12 6 25 13 OZO 1022,4 27 57 0,0
18.08.2018 15:00:00 24,7 12,6 24,6 - 22,7 9 5 24 13 O 1023,0 21 51 0,0
18.08.2018 14:00:00 23,3 12,3 24,3 - 22,8 14 7 24 13 O 1023,5 25 39 0,0
18.08.2018 13:00:00 23,8 13,6 27,4 - 22,8 8 5 18 10 ONO 1023,8 23 60 0,0
18.08.2018 12:00:00 22,6 14,7 26,4 - 22,7 5 3 12 7 NO 1024,0 17 60 0,0
18.08.2018 11:00:00 21,3 14,7 24,1 - 22,7 2 1 10 5 O 1024,3 16 60 0,0
18.08.2018 10:00:00 18,6 14,3 18,7 - 22,8 0 0 6 3 N 1024,1 21 60 0,0
18.08.2018 09:00:00 15,6 13,8 14,7 - 22,7 5 3 7 4 ZZO 1024,0 20 60 0,0
18.08.2018 08:00:00 13,3 12,7 11,5 23,4 22,8 0 0 4 2 N 1024,0 18 26 0,0
18.08.2018 07:00:00 13,0 12,4 11,0 - 22,8 0 0 5 3 N 1023,7 19 0 0,0
18.08.2018 06:00:00 13,3 12,2 11,8 - 22,8 0 0 4 2 N 1023,7 21 0 0,0
18.08.2018 05:00:00 13,8 12,7 12,7 - 22,8 2 1 10 5 Z 1023,7 20 0 0,0
18.08.2018 04:00:00 14,3 13,0 12,9 - 22,8 3 1 6 4 Z 1024,0 18 0 0,0
18.08.2018 03:00:00 15,3 13,0 14,3 - 22,8 0 0 5 3 N 1024,3 21 0 0,0
18.08.2018 02:00:00 15,0 12,9 13,2 - 22,8 3 2 7 4 Z 1024,8 19 0 0,0
18.08.2018 01:00:00 14,6 12,6 13,0 24,3 22,8 4 2 6 3 Z 1024,8 23 0 0,0
18.08.2018 00:00:00 14,5 12,7 13,4 24,5 22,8 2 1 6 4 Z 1024,5 23 0 0,0
17.08.2018 23:00:00 15,5 13,0 14,1 - 22,8 0 0 6 3 N 1024,4 26 0 0,0
17.08.2018 22:00:00 16,7 11,8 15,3 - 22,8 3 1 8 4 W 1024,0 28 0 0,0
17.08.2018 21:00:00 18,4 11,5 17,7 - 22,8 5 3 16 9 W 1023,5 30 37 0,0
17.08.2018 20:00:00 20,3 11,0 21,7 - 22,8 13 7 29 16 WNW 1023,0 22 60 0,0
17.08.2018 19:00:00 20,9 11,2 21,7 - 22,8 12 7 28 15 NNW 1022,8 30 28 0,0
17.08.2018 18:00:00 22,1 11,8 22,4 - 22,8 15 8 32 18 NNW 1022,6 21 32 0,0
17.08.2018 17:00:00 22,1 10,9 24,8 - 22,8 18 10 40 21 WNW 1022,4 22 57 0,0
17.08.2018 16:00:00 22,6 11,9 26,5 - 22,7 18 10 41 22 NW 1022,4 25 60 0,0
17.08.2018 15:00:00 22,4 11,5 26,8 - 22,8 19 10 34 18 WNW 1022,5 21 58 0,0
17.08.2018 14:00:00 22,4 15,7 19,4 - 22,8 10 5 26 14 NW 1022,4 16 24 0,2
17.08.2018 13:00:00 20,7 15,3 22,1 - 22,8 13 7 29 16 NW 1022,5 10 17 0,0
17.08.2018 12:00:00 21,1 16,3 19,8 - 22,8 9 5 17 9 NNW 1022,2 25 0 0,0
17.08.2018 11:00:00 19,1 17,1 18,4 - 22,7 9 5 19 10 N 1022,0 6 0 0,0
17.08.2018 10:00:00 18,6 16,7 17,7 - 22,8 7 4 19 10 N 1021,4 4,8 0 0,0
17.08.2018 09:00:00 17,9 16,6 17,3 - 22,8 7 4 19 11 NNO 1021,0 8 0 0,0
17.08.2018 08:00:00 18,4 17,6 17,9 - 22,8 8 4 16 9 NNO 1020,3 19 0 0,2
17.08.2018 07:00:00 18,7 17,5 18,0 - 22,8 5 3 10 5 N 1019,8 3,4 0 0,2
17.08.2018 06:00:00 18,1 17,1 17,2 - 22,8 2 1 6 3 ZZO 1019,3 17 0 0,0
17.08.2018 05:00:00 18,0 16,5 17,2 - 22,8 4 2 13 7 WNW 1018,9 19 0 -
17.08.2018 04:00:00 19,0 17,0 18,0 - 22,8 4 2 7 4 WZW 1019,3 24 0 0,0
17.08.2018 03:00:00 19,8 17,2 19,6 - 22,7 5 3 8 5 WZW 1019,1 26 0 0,0
17.08.2018 02:00:00 20,1 17,7 19,2 - 22,8 3 1 7 4 W 1019,2 23 0 0,0
17.08.2018 01:00:00 20,2 18,0 19,8 - 22,8 5 3 11 6 WNW 1019,0 16 0 0,0
17.08.2018 00:00:00 20,5 18,1 20,0 - 22,8 5 3 11 6 W 1019,0 15 0 0,0
16.08.2018 23:00:00 20,8 18,0 20,5 - 22,8 3 2 12 7 WZW 1018,9 17 0 0,0
16.08.2018 22:00:00 21,3 18,1 21,1 - 22,8 10 5 17 9 W 1018,3 19 0 0,0
16.08.2018 21:00:00 22,2 18,6 22,0 - 22,8 9 5 16 9 WNW 1017,4 16 0 0,0
16.08.2018 20:00:00 23,1 18,4 23,3 - 22,8 8 5 23 12 WNW 1016,5 21 0 0,0
16.08.2018 19:00:00 24,0 19,1 24,6 - 22,8 10 5 22 12 WNW 1016,2 22 0 0,0
16.08.2018 18:00:00 24,9 19,0 25,9 - 22,8 9 5 22 12 W 1016,2 27 0 0,0
16.08.2018 17:00:00 25,3 18,7 27,0 - 22,8 9 5 27 15 WNW 1016,3 25 9 0,0
16.08.2018 16:00:00 25,4 20,0 25,9 - 22,8 13 7 27 14 W 1016,5 21 6 0,0
16.08.2018 15:00:00 25,8 19,9 27,8 - 22,8 15 8 31 17 W 1016,4 20 37 0,0
16.08.2018 14:00:00 26,1 19,5 28,6 - 22,8 15 8 26 14 W 1016,4 21 40 0,0
16.08.2018 13:00:00 26,3 20,2 27,1 - 22,8 16 9 25 14 WZW 1016,7 16 39 0,0
16.08.2018 12:00:00 25,4 19,5 26,1 - 22,8 13 7 21 11 W 1016,5 22 44 0,0
16.08.2018 11:00:00 24,4 20,7 27,0 - 22,8 10 6 18 10 WZW 1016,4 16 54 0,0
16.08.2018 10:00:00 21,3 19,8 21,3 - 22,8 4 2 10 5 W 1016,2 10 30 0,0
16.08.2018 09:00:00 19,0 18,3 17,7 - 22,8 0 0 4 2 N 1016,2 6 0 0,0
16.08.2018 08:00:00 17,5 16,9 17,3 - 22,8 2 1 3 2 ZO 1015,9 3,5 0 0,0
16.08.2018 07:00:00 17,6 17,1 15,8 - 22,8 0 0 3 2 N 1015,8 3,7 0 0,0
16.08.2018 06:00:00 16,3 15,7 14,8 - 22,8 0 0 5 3 N 1015,7 18 0 0,0
16.08.2018 05:00:00 16,3 15,3 15,0 - 22,8 2 1 3 2 OZO 1015,7 24 0 0,0
16.08.2018 04:00:00 17,1 16,0 15,6 - 22,8 0 0 3 1 N 1016,0 12 0 0,0
16.08.2018 03:00:00 17,5 16,7 16,1 - 22,8 0 0 4 2 N 1016,2 19 0 0,0
16.08.2018 02:00:00 18,1 16,6 16,7 - 22,8 0 0 5 3 N 1016,5 23 0 0,0
16.08.2018 01:00:00 19,8 17,0 18,3 - 22,8 0 0 15 8 N 1016,5 27 0 0,0
16.08.2018 00:00:00 22,4 16,7 21,6 - 22,8 10 5 14 8 NO 1016,6 21 0 0,0
15.08.2018 23:00:00 23,4 17,2 21,2 - 22,8 7 4 12 7 NNO 1016,8 28 0 0,0
15.08.2018 22:00:00 23,2 18,1 21,4 - 22,8 3 2 7 4 NW 1016,9 34 0 0,0
15.08.2018 21:00:00 25,5 17,4 24,4 - 22,8 4 2 9 5 O 1016,4 42 35 0,0
15.08.2018 20:00:00 27,1 16,4 28,2 - 22,8 7 4 16 8 OZO 1016,6 39 60 0,0
15.08.2018 19:00:00 27,7 16,0 30,5 - 22,8 10 5 18 10 OZO 1016,8 33 60 0,0
15.08.2018 18:00:00 28,1 16,4 31,1 - 22,9 10 5 23 12 OZO 1017,5 33 60 0,0
15.08.2018 17:00:00 28,0 15,6 31,1 - 22,8 13 7 30 16 O 1017,8 24 60 0,0
15.08.2018 16:00:00 27,4 16,7 30,6 - 22,8 14 8 27 14 O 1018,5 25 60 0,0
15.08.2018 15:00:00 27,0 16,6 29,9 - 22,8 10 6 27 14 O 1019,2 26 60 0,0
15.08.2018 14:00:00 25,7 17,1 29,0 - 22,8 12 7 25 13 NO 1019,8 23 60 0,0
15.08.2018 13:00:00 24,7 16,7 28,0 - 22,9 9 5 20 11 O 1020,3 24 60 0,0
15.08.2018 12:00:00 23,5 16,5 28,1 - 22,8 5 3 15 8 ONO 1021,0 30 60 0,0
15.08.2018 11:00:00 22,1 16,4 24,5 - 22,8 3 2 9 5 ONO 1021,3 20 60 0,0
15.08.2018 10:00:00 19,9 16,1 22,4 - 22,8 5 3 10 5 O 1021,4 23 60 0,0
15.08.2018 09:00:00 17,1 16,0 15,7 - 22,8 0 0 4 2 N 1021,6 15 60 0,0
15.08.2018 08:00:00 15,1 14,6 12,9 - 22,9 3 2 4 2 O 1021,6 11 30 0,0
15.08.2018 07:00:00 14,1 13,5 12,5 - 22,9 0 0 4 2 N 1021,6 11 0 0,0
15.08.2018 06:00:00 14,5 13,9 13,0 - 22,9 0 0 4 2 N 1021,9 12 0 0,0

tt = temperatuur
td = dauwpunt
tt 5cm = temperatuur 5cm
tt -20cm = temperatuur -20cm
tt -100cm = temperatuur -100cm
ff = windsnelheid
fx = windstoten
dd = windrichting
ppp = luchtdruk
vv = zicht
sd = Zonneschijnduur
rr = neerslag

Weerstations in de omgeving